De Queen, AR

11:57 PM CST on January 25, 2020 (GMT -0600)
Helms Sevier County

Weather History for KDEQ - October, 2019

Change the Weather History Date:

Thursday, October 17, 2019

  Actual Average Record
Temperature  
Mean Temperature 55 °F 63 °F  
Max Temperature 71 °F 76 °F 92 °F (1953)
Min Temperature 39 °F 50 °F 28 °F (1952)
Degree Days  
Heating Degree Days 10 4  
Month to date heating degree days 56 45  
Since 1 July heating degree days 56 54  
Cooling Degree Days 0 2  
Month to date cooling degree days 92 48  
Year to date cooling degree days 2309 1913  
Growing Degree Days 5 (Base 50)    
Moisture  
Dew Point 43 °F    
Average Humidity 87    
Maximum Humidity 100    
Minimum Humidity 40    
Precipitation  
Precipitation 0.00 in 0.16 in 3.92 in (1983)
Month to date precipitation 0.81 2.50  
Year to date precipitation 42.90 37.70  
Snow  
Snow 0.00 in - - ()
Month to date snowfall 0.0  
Since 1 July snowfall 0.0  
Since 1 September snowfall 0.0  
Snow Depth 0.00 in    
Sea Level Pressure  
Sea Level Pressure 30.05 in    
Wind  
Wind Speed 0 mph ()    
Max Wind Speed 8 mph    
Max Gust Speed 13 mph    
Visibility 3.7 miles    
Events Fog    
T = Trace of Precipitation, MM = Missing Value Source: Averaged Metar Reports

Daily Weather History Graph

Daily Weather History Graph

Search for Another Location

Airport or City:

Astronomy

Oct. 17, 2019 Rise Set
Actual Time 7:24 AM CDT 6:41 PM CDT
Civil Twilight 6:58 AM CDT 7:06 PM CDT
Nautical Twilight 6:29 AM CDT 7:35 PM CDT
Astronomical Twilight 6:00 AM CDT 8:04 PM CDT
Moon 9:22 PM CDT (10/17) 10:48 AM CDT (10/17)
Length of Visible Light 12h 07m
Length of Day
11h 17m
Waning Gibbous, 86% of the Moon is Illuminated
Oct 17
Waning Gibbous
Oct 21
Last Quarter
Oct 27
New
Nov 4
First Quarter
Nov 12
Full

Hourly Weather History & Observations

Time (CDT) Temp. Windchill Dew Point Humidity Pressure Visibility Wind Dir Wind Speed Gust Speed Precip Events Conditions
12:08 AM 46.0 °F - 44.1 °F 93% 30.08 in 1.5 mi Calm Calm - N/A   Clear
12:10 AM 46.0 °F - 44.1 °F 93% 30.08 in 0.8 mi Calm Calm - N/A   Mist
12:25 AM 46.0 °F - 44.1 °F 93% 30.08 in 1.2 mi Calm Calm - N/A   Partly Cloudy
12:32 AM 46.9 °F - 44.1 °F 90% 30.08 in 1.0 mi Calm Calm - N/A   Mist
12:37 AM 46.0 °F 44.8 °F 44.1 °F 93% 30.08 in 2.0 mi WSW 3.5 mph - N/A   Partly Cloudy
12:48 AM 46.4 °F - 44.6 °F 93% 30.08 in 5.0 mi Calm Calm - N/A   Partly Cloudy
12:50 AM 44.6 °F - 44.6 °F 100% 30.08 in 1.8 mi Calm Calm - N/A   Partly Cloudy
12:53 AM 46.0 °F - 44.1 °F 93% 30.08 in 1.0 mi Calm Calm - N/A   Mist
1:01 AM 46.0 °F - 43.0 °F 89% 30.08 in 0.8 mi Calm Calm - N/A   Mist
1:07 AM 45.0 °F - 43.0 °F 93% 30.09 in 1.2 mi Calm Calm - N/A   Partly Cloudy
1:12 AM 45.0 °F - 43.0 °F 93% 30.09 in 3.0 mi Calm Calm - N/A   Partly Cloudy
1:23 AM 45.0 °F - 43.0 °F 93% 30.09 in 1.5 mi Calm Calm - N/A   Clear
1:32 AM 44.1 °F - 42.1 °F 93% 30.09 in 0.5 mi Calm Calm - N/A Fog Fog
1:53 AM 44.1 °F - 42.1 °F 93% 30.09 in 0.2 mi Calm Calm - N/A Fog Fog
2:01 AM 45.0 °F - 42.1 °F 90% 30.10 in 1.0 mi Calm Calm - N/A   Mist
2:13 AM 45.0 °F - 42.1 °F 90% 30.10 in 0.5 mi Calm Calm - N/A Fog Fog
2:53 AM 44.1 °F - 42.1 °F 93% 30.09 in 1.0 mi Calm Calm - N/A   Mist
3:02 AM 43.0 °F - 41.0 °F 93% 30.09 in 2.0 mi Calm Calm - N/A   Scattered Clouds
3:09 AM 43.0 °F - 41.0 °F 93% 30.09 in 1.2 mi Calm Calm - N/A   Scattered Clouds
3:14 AM 43.0 °F - 41.0 °F 93% 30.09 in 0.8 mi Calm Calm - N/A   Mist
3:42 AM 43.0 °F - 39.9 °F 89% 30.08 in 1.2 mi Calm Calm - N/A   Scattered Clouds
3:48 AM 42.8 °F - 39.2 °F 87% 30.09 in 4.0 mi Calm Calm - N/A   Partly Cloudy
3:53 AM 42.1 °F - 39.9 °F 92% 30.08 in - Calm Calm - N/A   Partly Cloudy
4:53 AM 42.1 °F - 39.0 °F 89% 30.07 in - Calm Calm - N/A   Mostly Cloudy
5:46 AM 41.0 °F - 39.9 °F 96% 30.09 in - Calm Calm - N/A   Scattered Clouds
5:53 AM 39.9 °F - 37.9 °F 93% 30.08 in - Calm Calm - N/A   Partly Cloudy
6:20 AM 39.9 °F - 39.0 °F 97% 30.08 in 0.2 mi Calm Calm - N/A Fog Fog
6:51 AM 41.0 °F - 39.2 °F 93% 30.08 in - Calm Calm - N/A   Overcast
6:53 AM 41.0 °F - 39.9 °F 96% 30.08 in - Calm Calm - N/A   Overcast
7:10 AM 41.0 °F - 39.9 °F 96% 30.07 in - Calm Calm - N/A   Unknown
7:23 AM 42.1 °F - 39.9 °F 92% 30.07 in 0.2 mi Calm Calm - N/A Fog Fog
7:34 AM 42.1 °F - 39.9 °F 92% 30.07 in 1.0 mi Calm Calm - N/A   Mist
7:36 AM 42.1 °F - 39.9 °F 92% 30.07 in 2.5 mi Calm Calm - N/A   Mostly Cloudy
7:43 AM 42.1 °F - 39.9 °F 92% 30.07 in 8.0 mi Calm Calm - N/A   Mostly Cloudy
7:51 AM 42.8 °F - 39.2 °F 87% 30.07 in 10.0 mi Calm Calm - N/A   Scattered Clouds
8:27 AM 43.0 °F - 42.1 °F 97% 30.08 in 1.8 mi Calm Calm - N/A   Partly Cloudy
8:37 AM 44.1 °F - 42.1 °F 93% 30.09 in 4.0 mi Calm Calm - N/A   Partly Cloudy
8:53 AM 45.0 °F - 43.0 °F 93% 30.10 in - Calm Calm - N/A   Partly Cloudy
9:53 AM 51.1 °F - 46.9 °F 86% 30.10 in - Calm Calm - N/A   Clear
10:53 AM 59.0 °F - 46.0 °F 62% 30.10 in 10.0 mi East 5.8 mph - N/A   Clear
11:53 AM 62.1 °F - 46.9 °F 58% 30.08 in 10.0 mi ENE 4.6 mph - N/A   Clear
12:53 PM 64.0 °F - 46.9 °F 54% 30.05 in 10.0 mi Calm Calm - N/A   Clear
1:53 PM 66.9 °F - 46.9 °F 49% 30.01 in 10.0 mi SE 3.5 mph - N/A   Clear
2:53 PM 69.1 °F - 46.0 °F 44% 29.99 in 10.0 mi Calm Calm - N/A   Clear
3:53 PM 69.1 °F - 45.0 °F 42% 29.97 in 10.0 mi Calm Calm - N/A   Clear
4:53 PM 69.1 °F - 46.0 °F 44% 29.96 in 10.0 mi South 3.5 mph - N/A   Clear
5:53 PM 66.0 °F - 46.9 °F 50% 29.96 in 10.0 mi SE 4.6 mph - N/A   Clear
6:53 PM 59.0 °F - 51.1 °F 75% 29.96 in 10.0 mi Calm Calm - N/A   Clear
7:53 PM 54.0 °F - 48.9 °F 83% 29.97 in 10.0 mi ESE 3.5 mph - N/A   Clear
8:53 PM 51.1 °F - 48.0 °F 89% 29.97 in 10.0 mi Calm Calm - N/A   Clear
9:53 PM 50.0 °F - 48.0 °F 93% 29.97 in 7.0 mi Calm Calm - N/A   Clear
10:11 PM 48.0 °F - 46.0 °F 93% 29.97 in 1.8 mi Calm Calm - N/A   Clear
10:16 PM 48.9 °F - 46.9 °F 93% 29.97 in 0.5 mi Calm Calm - N/A Fog Fog
10:25 PM 46.9 °F - 46.0 °F 97% 29.97 in 0.2 mi Calm Calm - N/A Fog Fog
10:49 PM 48.2 °F - 46.4 °F 93% 29.97 in 1.0 mi Calm Calm - N/A   Mist
10:53 PM 48.0 °F - 46.0 °F 93% 29.97 in 5.0 mi Calm Calm - N/A   Scattered Clouds
11:04 PM 46.0 °F - 44.1 °F 93% 29.98 in 1.0 mi Calm Calm - N/A   Mist
11:11 PM 46.9 °F - 45.0 °F 93% 29.97 in 0.5 mi Calm Calm - N/A Fog Fog
11:34 PM 46.9 °F - 45.0 °F 93% 29.97 in 1.2 mi Calm Calm - N/A   Partly Cloudy
11:36 PM 46.9 °F - 45.0 °F 93% 29.96 in 4.0 mi Calm Calm - N/A   Clear
11:53 PM 46.9 °F - 45.0 °F 93% 29.96 in 3.0 mi Calm Calm - N/A   Clear
11:56 PM 46.9 °F - 45.0 °F 93% 29.96 in 1.8 mi Calm Calm - N/A   Clear